Location: Aalen
(48.8330°N, 10.1000°E)
Time: 04:55:19
(UTC+02:00)

Transit 2A - Pass Details

Date: 03 August 2021
Orbit: 594 x 964 km, 66.7° (Epoch: 27 September)

Event Time Altitude Azimuth Distance (km) Brightness Sun altitude
Rises 16:29:08 0° 318° (NW) 3,261 9.4 41.5°
Reaches altitude 10° 16:31:38 10° 309° (NW) 2,389 9.0 41.1°
Maximum altitude 16:36:33 34° 246° (WSW) 1,391 10.2 40.3°
Drops below altitude 10° 16:41:51 10° 184° (S) 2,583 9.1 39.5°
Sets 16:44:40 0° 176° (S) 3,563 9.6 39.1°
